Regional Weather Roundup
Issued by NWS

Home | Current Version | Previous Version | Text Only | Print | Product List | Glossary Off
Versions: 1 2 3 4 5 6 7 8 9 10 11 12 13 14 15 16 17 18 19 20 21 22 23 24 25 26 27 28 29 30 31 32 33 34 35 36 37 38 39 40 41 42 43 44 45 46 47 48 49 50

910
ASUS43 KLMK 241402
RWRKY
KENTUCKY REGIONAL WEATHER ROUNDUP
NATIONAL WEATHER SERVICE LOUISVILLE KY
1000 AM EDT TUE APR 24 2018

NOTE "FAIR" INDICATES FEW OR NO CLOUDS BELOW 12,000 FEET
WITH NO SIGNIFICANT WEATHER AND/OR OBSTRUCTIONS TO VISIBILITY.

KYZ001>023-026-027-061>063-070>075-241500-
WESTERN AND SOUTH CENTRAL KENTUCKY

CITY           SKY/WX    TMP DP  RH WIND       PRES   REMARKS
PADUCAH        CLOUDY    58  55  90 N7        29.95R FOG
HENDERSON      CLOUDY    56  53  90 N5        29.96R
OWENSBORO      CLOUDY    56  53  90 N3        29.95R
HOPKINSVILLE   NOT AVBL
BOWLING GREEN  CLOUDY    58  56  93 CALM      29.92S
GLASGOW        NOT AVBL
$$

KYZ024-025-028>034-038-045-046-053-241500-
NORTH CENTRAL KENTUCKY

CITY           SKY/WX    TMP DP  RH WIND       PRES   REMARKS
LOUISVILLE/SDF LGT RAIN  55  53  93 E5        29.93S FOG
LOUISVILLE/LOU CLOUDY    54  54 100 E7        29.94S FOG
FORT KNOX      NOT AVBL
$$

KYZ035>037-039>044-047>052-055>060-089>105-241500-
NORTHEAST KENTUCKY

CITY           SKY/WX    TMP DP  RH WIND       PRES   REMARKS
LEXINGTON      LGT RAIN  54  50  86 NE5       29.93S
COVINGTON      LGT RAIN  54  52  93 E12       29.95S
FRANKFORT      LGT RAIN  54  50  86 E5        29.93S
$$

KYZ054-064>069-076>088-106>120-241500-
SOUTHEAST KENTUCKY

CITY           SKY/WX    TMP DP  RH WIND       PRES   REMARKS
JACKSON        PTSUNNY   57  52  83 VRB3      29.92S
LONDON         RAIN      53  52  96 E6        29.91F FOG
SOMERSET       NOT AVBL
MIDDLESBORO    RAIN      54  54 100 CALM      29.93S
MONTICELLO     CLOUDY    54  53  97 W8        29.93R
$$





USA.gov is the U.S. government's official web portal to all federal, state and local government web resources and services.